| time (UTC) | temp C | wind direction | speed KPH | gust KPH | rain 1hr cm | rain 24hr cm | rain mn cm | humidity % | barometer mb |
| 20260510140204 | 21 | 348 | 3.2 | 16.1 | 0.00 | 0.00 | 0.00 | 52 | 1016.4 |
| 20260510135705 | 20 | 338 | 8.0 | 16.1 | 0.00 | 0.00 | 0.00 | 54 | 1016.7 |
| 20260510134704 | 20 | 276 | 8.0 | 20.9 | 0.00 | 0.00 | 0.00 | 56 | 1016.4 |
| 20260510134204 | 20 | 306 | 9.7 | 19.3 | 0.00 | 0.00 | 0.00 | 58 | 1016.4 |
| 20260510133704 | 20 | 305 | 11.3 | 19.3 | 0.00 | 0.00 | 0.00 | 58 | 1016.4 |
| 20260510133204 | 20 | 276 | 11.3 | 19.3 | 0.00 | 0.00 | 0.00 | 60 | 1016.5 |
| 20260510132204 | 19 | 307 | 11.3 | 16.1 | 0.00 | 0.00 | 0.00 | 63 | 1016.4 |
| 20260510131704 | 19 | 293 | 9.7 | 19.3 | 0.00 | 0.00 | 0.00 | 66 | 1016.5 |
| 20260510130703 | 18 | 317 | 11.3 | 19.3 | 0.00 | 0.00 | 0.00 | 70 | 1016.4 |
| 20260510130204 | 18 | 337 | 8.0 | 12.9 | 0.00 | 0.00 | 0.00 | 73 | 1016.3 |
| 20260510124704 | 17 | 330 | 1.6 | 12.9 | 0.00 | 0.00 | 0.00 | 81 | 1016.3 |
| 20260510124203 | 17 | 336 | 6.4 | 12.9 | 0.00 | 0.00 | 0.00 | 81 | 1016.3 |
| 20260510123204 | 16 | 339 | 3.2 | 12.9 | 0.00 | 0.00 | 0.00 | 85 | 1016.2 |
| 20260510122704 | 16 | 337 | 3.2 | 11.3 | 0.00 | 0.00 | 0.00 | 87 | 1016.2 |
| 20260510122204 | 15 | 353 | 1.6 | 11.3 | 0.00 | 0.00 | 0.00 | 89 | 1016.2 |
| 20260510121704 | 15 | 296 | 3.2 | 9.7 | 0.00 | 0.00 | 0.00 | 92 | 1016.1 |
| 20260510121204 | 15 | 305 | 0.0 | 4.8 | 0.00 | 0.00 | 0.00 | 94 | 1016.0 |
| 20260510120704 | 14 | 326 | 1.6 | 8.0 | 0.00 | 0.00 | 0.00 | 95 | 1016.1 |
| 20260510120204 | 13 | 313 | 1.6 | 11.3 | 0.00 | 0.00 | 0.00 | 95 | 1016.1 |
| 20260510115704 | 13 | 307 | 3.2 | 11.3 | 0.00 | 0.00 | 0.00 | 96 | 1016.1 |
| 20260510115205 | 13 | 323 | 4.8 | 11.3 | 0.00 | 0.00 | 0.00 | 97 | 1016.1 |
| 20260510114705 | 13 | 302 | 1.6 | 9.7 | 0.00 | 0.00 | 0.00 | 97 | 1015.9 |
| 20260510114204 | 13 | 298 | 1.6 | 9.7 | 0.00 | 0.00 | 0.00 | 98 | 1015.9 |
| 20260510113706 | 12 | 351 | 3.2 | 9.7 | 0.00 | 0.00 | 0.00 | 99 | 1015.8 |
| 20260510113205 | 12 | 319 | 0.0 | 8.0 | 0.00 | 0.00 | 0.00 | 99 | 1015.8 |
| 20260510112205 | 11 | 92 | 0.0 | 0.0 | 0.00 | 0.00 | 0.00 | 99 | 1015.6 |
| 20260510111205 | 11 | 92 | 0.0 | 0.0 | 0.00 | 0.00 | 0.00 | 99 | 1015.5 |
| 20260510110705 | 10 | 92 | 0.0 | 0.0 | 0.00 | 0.00 | 0.00 | 99 | 1015.4 |
| 20260510110205 | 10 | 92 | 0.0 | 0.0 | 0.00 | 0.00 | 0.00 | 99 | 1015.2 |
| 20260510105705 | 10 | 92 | 0.0 | 0.0 | 0.00 | 0.00 | 0.00 | 99 | 1015.1 |
| 20260510105205 | 9 | 92 | 0.0 | 0.0 | 0.00 | 0.00 | 0.00 | 99 | 1015.0 |
| 20260510104705 | 9 | 92 | 0.0 | 0.0 | 0.00 | 0.00 | 0.00 | 99 | 1015.0 |
| 20260510104205 | 9 | 92 | 0.0 | 0.0 | 0.00 | 0.00 | 0.00 | 99 | 1014.9 |
| 20260510103706 | 9 | 92 | 0.0 | 0.0 | 0.00 | 0.00 | 0.00 | 99 | 1014.9 |
| 20260510103205 | 9 | 92 | 0.0 | 0.0 | 0.00 | 0.00 | 0.00 | 99 | 1014.8 |
| 20260510102705 | 9 | 92 | 0.0 | 0.0 | 0.00 | 0.00 | 0.00 | 99 | 1014.8 |
| 20260510102205 | 9 | 92 | 0.0 | 0.0 | 0.00 | 0.00 | 0.00 | 99 | 1014.7 |
| 20260510101205 | 9 | 92 | 0.0 | 0.0 | 0.00 | 0.00 | 0.00 | 99 | 1014.7 |
| 20260510100705 | 9 | 92 | 0.0 | 0.0 | 0.00 | 0.00 | 0.00 | 99 | 1014.7 |
| 20260510100205 | 9 | 92 | 0.0 | 0.0 | 0.00 | 0.00 | 0.00 | 99 | 1014.6 |
| 20260510095706 | 9 | 92 | 0.0 | 0.0 | 0.00 | 0.00 | 0.00 | 99 | 1014.6 |
| 20260510094205 | 9 | 92 | 0.0 | 0.0 | 0.00 | 0.00 | 0.00 | 99 | 1014.5 |
| 20260510093706 | 9 | 92 | 0.0 | 0.0 | 0.00 | 0.00 | 0.00 | 99 | 1014.4 |
| 20260510093205 | 9 | 92 | 0.0 | 0.0 | 0.00 | 0.00 | 0.00 | 99 | 1014.3 |
| 20260510092705 | 9 | 92 | 0.0 | 0.0 | 0.00 | 0.00 | 0.00 | 99 | 1014.3 |
| 20260510092206 | 9 | 92 | 0.0 | 0.0 | 0.00 | 0.00 | 0.00 | 99 | 1014.2 |
| 20260510091705 | 9 | 92 | 0.0 | 0.0 | 0.00 | 0.00 | 0.00 | 99 | 1014.2 |
| 20260510091206 | 9 | 92 | 0.0 | 0.0 | 0.00 | 0.00 | 0.00 | 99 | 1014.0 |
| 20260510090706 | 9 | 92 | 0.0 | 0.0 | 0.00 | 0.00 | 0.00 | 99 | 1013.9 |
| 20260510090205 | 8 | 92 | 0.0 | 0.0 | 0.00 | 0.00 | 0.00 | 99 | 1013.9 |
| 20260510085705 | 9 | 92 | 0.0 | 0.0 | 0.00 | 0.00 | 0.00 | 99 | 1014.0 |
| 20260510085205 | 9 | 92 | 0.0 | 0.0 | 0.00 | 0.00 | 0.00 | 99 | 1013.9 |
| 20260510084704 | 9 | 92 | 0.0 | 0.0 | 0.00 | 0.00 | 0.00 | 99 | 1013.9 |
| 20260510084205 | 9 | 92 | 0.0 | 0.0 | 0.00 | 0.00 | 0.00 | 99 | 1013.9 |
| 20260510083205 | 9 | 92 | 0.0 | 0.0 | 0.00 | 0.00 | 0.00 | 98 | 1014.0 |
| 20260510082705 | 9 | 92 | 0.0 | 0.0 | 0.00 | 0.00 | 0.00 | 98 | 1014.0 |
| 20260510082205 | 9 | 92 | 0.0 | 3.2 | 0.00 | 0.00 | 0.00 | 98 | 1013.9 |
| 20260510081705 | 9 | 92 | 0.0 | 3.2 | 0.00 | 0.00 | 0.00 | 97 | 1013.9 |
| 20260510081204 | 9 | 113 | 0.0 | 3.2 | 0.00 | 0.00 | 0.00 | 97 | 1013.9 |
| 20260510080705 | 9 | 121 | 0.0 | 0.0 | 0.00 | 0.00 | 0.00 | 96 | 1013.7 |
| 20260510080205 | 10 | 121 | 0.0 | 0.0 | 0.00 | 0.00 | 0.00 | 96 | 1013.7 |
| 20260510075706 | 10 | 121 | 0.0 | 0.0 | 0.00 | 0.00 | 0.00 | 96 | 1013.6 |
| 20260510075205 | 10 | 121 | 0.0 | 0.0 | 0.00 | 0.00 | 0.00 | 96 | 1013.5 |
| 20260510074705 | 10 | 121 | 0.0 | 0.0 | 0.00 | 0.00 | 0.00 | 95 | 1013.4 |
| 20260510074205 | 10 | 121 | 0.0 | 0.0 | 0.00 | 0.00 | 0.00 | 95 | 1013.4 |
| 20260510073705 | 10 | 121 | 0.0 | 0.0 | 0.00 | 0.00 | 0.00 | 95 | 1013.4 |
| 20260510073205 | 10 | 121 | 0.0 | 0.0 | 0.00 | 0.00 | 0.00 | 94 | 1013.3 |
| 20260510072705 | 10 | 121 | 0.0 | 0.0 | 0.00 | 0.00 | 0.00 | 94 | 1013.3 |
| 20260510072205 | 10 | 121 | 0.0 | 0.0 | 0.00 | 0.00 | 0.00 | 94 | 1013.3 |
| 20260510071705 | 10 | 121 | 0.0 | 0.0 | 0.00 | 0.00 | 0.00 | 91 | 1013.3 |
| 20260510071205 | 11 | 121 | 0.0 | 0.0 | 0.00 | 0.00 | 0.00 | 89 | 1013.3 |
| 20260510070705 | 11 | 121 | 0.0 | 0.0 | 0.00 | 0.00 | 0.00 | 88 | 1013.2 |
| 20260510065705 | 12 | 121 | 0.0 | 0.0 | 0.00 | 0.00 | 0.00 | 87 | 1013.2 |
| 20260510065205 | 12 | 121 | 0.0 | 0.0 | 0.00 | 0.00 | 0.00 | 87 | 1013.2 |
| 20260510064706 | 11 | 121 | 0.0 | 0.0 | 0.00 | 0.00 | 0.00 | 87 | 1013.2 |
| 20260510064205 | 11 | 121 | 0.0 | 0.0 | 0.00 | 0.00 | 0.00 | 87 | 1013.2 |
| 20260510063705 | 11 | 121 | 0.0 | 0.0 | 0.00 | 0.00 | 0.00 | 85 | 1013.3 |
| 20260510063205 | 12 | 121 | 0.0 | 0.0 | 0.00 | 0.00 | 0.00 | 82 | 1013.3 |
| 20260510062705 | 12 | 121 | 0.0 | 0.0 | 0.00 | 0.00 | 0.00 | 82 | 1013.4 |
| 20260510062205 | 12 | 121 | 0.0 | 0.0 | 0.00 | 0.00 | 0.00 | 80 | 1013.4 |
| 20260510061705 | 12 | 121 | 0.0 | 0.0 | 0.00 | 0.00 | 0.00 | 80 | 1013.4 |
| 20260510061205 | 12 | 121 | 0.0 | 0.0 | 0.00 | 0.00 | 0.00 | 80 | 1013.3 |
| 20260510060705 | 12 | 121 | 0.0 | 0.0 | 0.00 | 0.00 | 0.00 | 80 | 1013.3 |
| 20260510060205 | 12 | 121 | 0.0 | 0.0 | 0.00 | 0.00 | 0.00 | 81 | 1013.3 |
| 20260510055705 | 12 | 121 | 0.0 | 0.0 | 0.00 | 0.00 | 0.00 | 81 | 1013.4 |
| 20260510055205 | 12 | 121 | 0.0 | 0.0 | 0.00 | 0.00 | 0.00 | 81 | 1013.3 |
| 20260510054705 | 12 | 121 | 0.0 | 0.0 | 0.00 | 0.00 | 0.00 | 82 | 1013.3 |
| 20260510054205 | 12 | 121 | 0.0 | 0.0 | 0.00 | 0.00 | 0.00 | 81 | 1013.3 |
| 20260510053705 | 12 | 121 | 0.0 | 0.0 | 0.00 | 0.00 | 0.00 | 82 | 1013.3 |
| 20260510053205 | 12 | 121 | 0.0 | 0.0 | 0.00 | 0.00 | 0.00 | 82 | 1013.3 |
| 20260510052705 | 12 | 121 | 0.0 | 0.0 | 0.00 | 0.00 | 0.00 | 81 | 1013.3 |
| 20260510051705 | 12 | 121 | 0.0 | 0.0 | 0.00 | 0.00 | 0.00 | 80 | 1013.2 |
| 20260510051205 | 12 | 121 | 0.0 | 3.2 | 0.00 | 0.00 | 0.00 | 80 | 1013.2 |
| 20260510050705 | 12 | 121 | 0.0 | 3.2 | 0.00 | 0.00 | 0.00 | 79 | 1013.3 |
| 20260510045705 | 12 | 167 | 0.0 | 0.0 | 0.00 | 0.00 | 0.00 | 78 | 1013.4 |
| 20260510045205 | 12 | 167 | 0.0 | 0.0 | 0.00 | 0.00 | 0.00 | 78 | 1013.4 |
| 20260510044705 | 12 | 167 | 0.0 | 0.0 | 0.00 | 0.00 | 0.00 | 79 | 1013.3 |
| 20260510044205 | 12 | 167 | 0.0 | 0.0 | 0.00 | 0.00 | 0.00 | 78 | 1013.2 |
| 20260510043705 | 12 | 167 | 0.0 | 0.0 | 0.00 | 0.00 | 0.00 | 79 | 1013.3 |
| 20260510043205 | 12 | 167 | 0.0 | 0.0 | 0.00 | 0.00 | 0.00 | 78 | 1013.3 |
| 20260510042705 | 12 | 167 | 0.0 | 4.8 | 0.00 | 0.00 | 0.00 | 78 | 1013.3 |
| 20260510042205 | 12 | 167 | 0.0 | 9.7 | 0.00 | 0.00 | 0.00 | 78 | 1013.2 |
| 20260510041704 | 12 | 166 | 4.8 | 9.7 | 0.00 | 0.00 | 0.00 | 77 | 1013.2 |
| 20260510041207 | 13 | 169 | 0.0 | 0.0 | 0.00 | 0.00 | 0.00 | 75 | 1013.1 |
| 20260510040706 | 13 | 169 | 0.0 | 0.0 | 0.00 | 0.00 | 0.00 | 74 | 1013.1 |
| 20260510040205 | 13 | 169 | 0.0 | 0.0 | 0.00 | 0.00 | 0.00 | 75 | 1013.1 |
| 20260510035205 | 13 | 169 | 0.0 | 0.0 | 0.00 | 0.00 | 0.00 | 72 | 1013.1 |
| 20260510034205 | 14 | 169 | 0.0 | 0.0 | 0.00 | 0.00 | 0.00 | 67 | 1013.0 |
| 20260510032705 | 14 | 169 | 0.0 | 0.0 | 0.00 | 0.00 | 0.00 | 69 | 1013.0 |
| 20260510031705 | 14 | 169 | 0.0 | 0.0 | 0.00 | 0.00 | 0.00 | 68 | 1013.0 |
| 20260510031205 | 15 | 169 | 0.0 | 0.0 | 0.00 | 0.00 | 0.00 | 66 | 1012.8 |
| 20260510030705 | 15 | 169 | 0.0 | 0.0 | 0.00 | 0.00 | 0.00 | 63 | 1012.8 |
| 20260510030205 | 15 | 169 | 0.0 | 0.0 | 0.00 | 0.00 | 0.00 | 61 | 1012.8 |
| 20260510024704 | 15 | 169 | 0.0 | 0.0 | 0.00 | 0.00 | 0.00 | 61 | 1012.8 |
| 20260510024205 | 16 | 169 | 0.0 | 0.0 | 0.00 | 0.00 | 0.00 | 60 | 1012.7 |
| 20260510023705 | 16 | 169 | 0.0 | 9.7 | 0.00 | 0.00 | 0.00 | 58 | 1012.7 |
| 20260510023205 | 16 | 169 | 1.6 | 9.7 | 0.00 | 0.00 | 0.00 | 55 | 1012.7 |
| 20260510022705 | 17 | 196 | 8.0 | 9.7 | 0.00 | 0.00 | 0.00 | 55 | 1012.6 |
| 20260510022205 | 17 | 250 | 0.0 | 8.0 | 0.00 | 0.00 | 0.00 | 53 | 1012.5 |
| 20260510021705 | 17 | 250 | 0.0 | 8.0 | 0.00 | 0.00 | 0.00 | 51 | 1012.3 |
| 20260510020705 | 16 | 318 | 1.6 | 4.8 | 0.00 | 0.00 | 0.00 | 56 | 1012.3 |
| 20260510020205 | 16 | 268 | 0.0 | 0.0 | 0.00 | 0.00 | 0.00 | 58 | 1012.2 |
| 20260510015705 | 16 | 268 | 0.0 | 0.0 | 0.00 | 0.00 | 0.00 | 59 | 1012.2 |
| 20260510014705 | 16 | 268 | 0.0 | 0.0 | 0.00 | 0.00 | 0.00 | 59 | 1011.9 |
| 20260510013205 | 16 | 268 | 0.0 | 0.0 | 0.00 | 0.00 | 0.00 | 57 | 1011.5 |
| 20260510011706 | 17 | 268 | 0.0 | 0.0 | 0.00 | 0.00 | 0.00 | 54 | 1011.2 |
| 20260510011205 | 17 | 268 | 0.0 | 0.0 | 0.00 | 0.00 | 0.00 | 52 | 1011.1 |
| 20260510010705 | 18 | 268 | 0.0 | 0.0 | 0.00 | 0.00 | 0.00 | 50 | 1011.1 |
| 20260510010205 | 18 | 268 | 0.0 | 0.0 | 0.00 | 0.00 | 0.00 | 47 | 1011.0 |
| 20260510005705 | 19 | 268 | 0.0 | 0.0 | 0.00 | 0.00 | 0.00 | 47 | 1011.0 |
| 20260510005205 | 20 | 268 | 0.0 | 0.0 | 0.00 | 0.00 | 0.00 | 43 | 1010.8 |
| 20260510004706 | 20 | 268 | 0.0 | 4.8 | 0.00 | 0.00 | 0.00 | 41 | 1010.8 |
| 20260510004205 | 20 | 268 | 0.0 | 4.8 | 0.00 | 0.00 | 0.00 | 40 | 1010.8 |
| 20260510003705 | 20 | 288 | 1.6 | 9.7 | 0.00 | 0.00 | 0.00 | 40 | 1010.8 |
| 20260510003205 | 20 | 325 | 1.6 | 9.7 | 0.00 | 0.00 | 0.00 | 39 | 1010.8 |
| 20260510002705 | 21 | 292 | 3.2 | 11.3 | 0.00 | 0.00 | 0.00 | 39 | 1010.7 |
| 20260510002205 | 21 | 310 | 8.0 | 12.9 | 0.00 | 0.00 | 0.00 | 38 | 1010.8 |
| 20260510001705 | 21 | 303 | 6.4 | 12.9 | 0.00 | 0.00 | 0.00 | 39 | 1010.6 |
| 20260510001205 | 21 | 302 | 0.0 | 4.8 | 0.00 | 0.00 | 0.00 | 38 | 1010.5 |
| 20260510000705 | 22 | 299 | 1.6 | 11.3 | 0.00 | 0.00 | 0.00 | 37 | 1010.5 |
| 20260509235705 | 22 | 287 | 9.7 | 14.5 | 0.00 | 0.00 | 0.00 | 34 | 1010.2 |
| 20260509235205 | 22 | 288 | 4.8 | 14.5 | 0.00 | 0.00 | 0.00 | 34 | 1010.2 |
| 20260509234205 | 23 | 310 | 8.0 | 16.1 | 0.00 | 0.00 | 0.00 | 34 | 1010.0 |
| 20260509233705 | 23 | 290 | 8.0 | 22.5 | 0.00 | 0.00 | 0.00 | 33 | 1009.9 |
| 20260509232704 | 23 | 331 | 9.7 | 20.9 | 0.00 | 0.00 | 0.00 | 33 | 1009.9 |
| 20260509232205 | 23 | 314 | 9.7 | 20.9 | 0.00 | 0.00 | 0.00 | 33 | 1009.9 |
| 20260509231705 | 23 | 310 | 9.7 | 19.3 | 0.00 | 0.00 | 0.00 | 32 | 1009.8 |
| 20260509231205 | 23 | 318 | 8.0 | 22.5 | 0.00 | 0.00 | 0.00 | 31 | 1009.7 |
| 20260509230705 | 23 | 317 | 14.5 | 22.5 | 0.00 | 0.00 | 0.00 | 31 | 1009.6 |
| 20260509230205 | 22 | 309 | 11.3 | 22.5 | 0.00 | 0.00 | 0.00 | 33 | 1009.6 |
| 20260509224705 | 22 | 331 | 14.5 | 22.5 | 0.00 | 0.00 | 0.00 | 33 | 1009.6 |
| 20260509224205 | 23 | 290 | 9.7 | 22.5 | 0.00 | 0.00 | 0.00 | 33 | 1009.7 |
| 20260509223705 | 23 | 300 | 12.9 | 22.5 | 0.00 | 0.00 | 0.00 | 32 | 1009.6 |
| 20260509222705 | 23 | 314 | 9.7 | 22.5 | 0.00 | 0.00 | 0.00 | 34 | 1009.6 |
| 20260509222205 | 23 | 310 | 9.7 | 25.7 | 0.00 | 0.00 | 0.00 | 32 | 1009.6 |
| 20260509221704 | 23 | 290 | 9.7 | 25.7 | 0.00 | 0.00 | 0.00 | 33 | 1009.6 |
| 20260509220705 | 23 | 291 | 6.4 | 20.9 | 0.00 | 0.00 | 0.00 | 34 | 1009.5 |
| 20260509215705 | 23 | 289 | 9.7 | 20.9 | 0.00 | 0.00 | 0.00 | 33 | 1009.5 |
| 20260509215205 | 23 | 301 | 11.3 | 20.9 | 0.00 | 0.00 | 0.00 | 33 | 1009.4 |
| 20260509214205 | 23 | 258 | 6.4 | 24.1 | 0.00 | 0.00 | 0.00 | 31 | 1009.4 |
| 20260509213705 | 23 | 283 | 9.7 | 24.1 | 0.00 | 0.00 | 0.00 | 32 | 1009.4 |
| 20260509213205 | 23 | 287 | 8.0 | 22.5 | 0.00 | 0.00 | 0.00 | 33 | 1009.4 |
| 20260509212705 | 23 | 302 | 8.0 | 22.5 | 0.00 | 0.00 | 0.00 | 31 | 1009.3 |
| 20260509212205 | 23 | 319 | 9.7 | 24.1 | 0.00 | 0.00 | 0.00 | 33 | 1009.3 |
| 20260509211705 | 23 | 306 | 12.9 | 24.1 | 0.00 | 0.00 | 0.00 | 31 | 1009.3 |
| 20260509211205 | 23 | 287 | 12.9 | 24.1 | 0.00 | 0.00 | 0.00 | 31 | 1009.2 |
| 20260509210705 | 23 | 280 | 11.3 | 19.3 | 0.00 | 0.00 | 0.00 | 32 | 1009.0 |
| 20260509205705 | 23 | 301 | 9.7 | 22.5 | 0.00 | 0.00 | 0.00 | 31 | 1009.0 |
| 20260509204705 | 25 | 238 | 8.0 | 24.1 | 0.00 | 0.00 | 0.00 | 31 | 1008.9 |
| 20260509204205 | 24 | 273 | 4.8 | 16.1 | 0.00 | 0.00 | 0.00 | 31 | 1009.0 |
| 20260509203705 | 24 | 249 | 6.4 | 35.4 | 0.00 | 0.00 | 0.00 | 31 | 1009.0 |
| 20260509202705 | 26 | 269 | 9.7 | 24.1 | 0.00 | 0.00 | 0.00 | 31 | 1009.0 |
| 20260509202205 | 24 | 290 | 11.3 | 24.1 | 0.00 | 0.00 | 0.00 | 28 | 1009.0 |
| 20260509201705 | 23 | 254 | 6.4 | 16.1 | 0.00 | 0.00 | 0.00 | 31 | 1009.0 |
| 20260509201205 | 24 | 222 | 1.6 | 19.3 | 0.00 | 0.00 | 0.00 | 38 | 1009.0 |
| 20260509200705 | 25 | 259 | 8.0 | 19.3 | 0.00 | 0.00 | 0.00 | 39 | 1009.0 |
| 20260509195705 | 25 | 232 | 4.8 | 19.3 | 0.00 | 0.00 | 0.00 | 37 | 1009.0 |
| 20260509195205 | 24 | 281 | 6.4 | 19.3 | 0.00 | 0.00 | 0.00 | 35 | 1009.0 |
| 20260509193706 | 23 | 110 | 0.0 | 11.3 | 0.00 | 0.00 | 0.00 | 43 | 1009.2 |
| 20260509193205 | 23 | 188 | 3.2 | 11.3 | 0.00 | 0.00 | 0.00 | 42 | 1009.2 |
| 20260509191205 | 23 | 240 | 8.0 | 16.1 | 0.00 | 0.00 | 0.00 | 42 | 1009.5 |
| 20260509190705 | 23 | 219 | 1.6 | 16.1 | 0.00 | 0.00 | 0.00 | 42 | 1009.5 |
| 20260509190206 | 23 | 233 | 4.8 | 16.1 | 0.00 | 0.00 | 0.00 | 40 | 1009.5 |
| 20260509185705 | 23 | 157 | 4.8 | 16.1 | 0.00 | 0.00 | 0.00 | 47 | 1009.5 |
| 20260509185205 | 22 | 143 | 8.0 | 16.1 | 0.00 | 0.00 | 0.00 | 46 | 1009.6 |
| 20260509184705 | 22 | 206 | 4.8 | 16.1 | 0.00 | 0.00 | 0.00 | 45 | 1009.7 |
| 20260509183705 | 23 | 147 | 3.2 | 14.5 | 0.00 | 0.00 | 0.00 | 46 | 1009.7 |
| 20260509183205 | 23 | 166 | 6.4 | 16.1 | 0.00 | 0.00 | 0.00 | 45 | 1009.8 |
| 20260509181205 | 22 | 246 | 3.2 | 11.3 | 0.00 | 0.00 | 0.00 | 44 | 1010.1 |
| 20260509180705 | 22 | 246 | 0.0 | 12.9 | 0.00 | 0.00 | 0.00 | 45 | 1010.2 |
| 20260509174205 | 22 | 180 | 3.2 | 11.3 | 0.00 | 0.00 | 0.00 | 48 | 1010.4 |
| 20260509173705 | 22 | 142 | 3.2 | 11.3 | 0.00 | 0.00 | 0.00 | 49 | 1010.5 |
| 20260509173206 | 22 | 215 | 1.6 | 11.3 | 0.00 | 0.00 | 0.00 | 47 | 1010.5 |
| 20260509172705 | 21 | 152 | 0.0 | 12.9 | 0.00 | 0.00 | 0.00 | 52 | 1010.6 |
| 20260509172205 | 21 | 209 | 0.0 | 20.9 | 0.00 | 0.00 | 0.00 | 53 | 1010.7 |
| 20260509171705 | 20 | 250 | 8.0 | 20.9 | 0.00 | 0.00 | 0.00 | 52 | 1010.7 |
| 20260509171205 | 20 | 215 | 0.0 | 11.3 | 0.00 | 0.00 | 0.00 | 52 | 1010.8 |
| 20260509170705 | 20 | 215 | 1.6 | 16.1 | 0.00 | 0.00 | 0.00 | 52 | 1010.9 |
| 20260509170205 | 20 | 324 | 3.2 | 32.2 | 0.00 | 0.00 | 0.00 | 54 | 1010.9 |
| 20260509165705 | 20 | 297 | 16.1 | 32.2 | 0.00 | 0.00 | 0.00 | 53 | 1011.0 |
| 20260509165205 | 21 | 173 | 3.2 | 9.7 | 0.00 | 0.00 | 0.00 | 51 | 1011.0 |
| 20260509164705 | 21 | 323 | 1.6 | 12.9 | 0.00 | 0.00 | 0.00 | 51 | 1011.1 |
| 20260509163704 | 21 | 208 | 1.6 | 12.9 | 0.00 | 0.00 | 0.00 | 51 | 1011.2 |
| 20260509162705 | 21 | 145 | 4.8 | 19.3 | 0.00 | 0.00 | 0.00 | 50 | 1011.2 |
| 20260509162205 | 21 | 221 | 6.4 | 19.3 | 0.00 | 0.00 | 0.00 | 50 | 1011.3 |
| 20260509161704 | 22 | 172 | 6.4 | 19.3 | 0.00 | 0.00 | 0.00 | 51 | 1011.2 |
| 20260509160706 | 22 | 180 | 4.8 | 16.1 | 0.00 | 0.00 | 0.00 | 50 | 1011.1 |
| 20260509160205 | 21 | 201 | 0.0 | 11.3 | 0.00 | 0.00 | 0.00 | 51 | 1011.1 |
| 20260509155705 | 21 | 103 | 1.6 | 11.3 | 0.00 | 0.00 | 0.00 | 52 | 1011.2 |
| 20260509154205 | 20 | 154 | 4.8 | 9.7 | 0.00 | 0.00 | 0.00 | 56 | 1011.2 |
| 20260509153705 | 20 | 161 | 1.6 | 12.9 | 0.00 | 0.00 | 0.00 | 56 | 1011.5 |
| 20260509153205 | 20 | 191 | 6.4 | 12.9 | 0.00 | 0.00 | 0.00 | 55 | 1011.7 |
| 20260509152705 | 20 | 167 | 3.2 | 11.3 | 0.00 | 0.00 | 0.00 | 54 | 1011.9 |
| 20260509152205 | 20 | 80 | 0.0 | 4.8 | 0.00 | 0.03 | 0.00 | 55 | 1011.8 |
| 20260509151705 | 20 | 152 | 1.6 | 11.3 | 0.00 | 0.03 | 0.00 | 55 | 1011.8 |
| 20260509151205 | 19 | 354 | 0.0 | 16.1 | 0.00 | 0.03 | 0.00 | 54 | 1011.8 |
| 20260509150705 | 19 | 81 | 1.6 | 16.1 | 0.00 | 0.03 | 0.00 | 58 | 1011.5 |
| 20260509150205 | 20 | 187 | 3.2 | 16.1 | 0.00 | 0.03 | 0.00 | 57 | 1011.3 |
| 20260509145705 | 19 | 115 | 9.7 | 12.9 | 0.00 | 0.03 | 0.00 | 55 | 1011.5 |
| 20260509145204 | 20 | 175 | 3.2 | 12.9 | 0.00 | 0.03 | 0.00 | 55 | 1011.8 |
| 20260509144705 | 20 | 128 | 3.2 | 12.9 | 0.00 | 0.03 | 0.00 | 56 | 1011.8 |
| 20260509144205 | 19 | 144 | 3.2 | 11.3 | 0.00 | 0.03 | 0.00 | 55 | 1011.9 |
| 20260509143705 | 19 | 101 | 3.2 | 9.7 | 0.00 | 0.03 | 0.00 | 56 | 1012.0 |
| 20260509142705 | 18 | 150 | 4.8 | 12.9 | 0.00 | 0.03 | 0.00 | 56 | 1012.2 |
| 20260509142204 | 18 | 141 | 3.2 | 11.3 | 0.00 | 0.03 | 0.00 | 57 | 1012.1 |
| 20260509141705 | 17 | 198 | 0.0 | 9.7 | 0.00 | 0.03 | 0.00 | 60 | 1012.2 |
| 20260509141205 | 17 | 138 | 0.0 | 8.0 | 0.00 | 0.03 | 0.00 | 56 | 1012.2 |
| 20260509140705 | 17 | 130 | 0.0 | 4.8 | 0.00 | 0.03 | 0.00 | 59 | 1012.3 |